This demonstration page uses our WeatherBlox Daily Observations layout. Learn more.

41.55636, -103.73856

Hourly Observations for July 16, 2016

Temp ( °F °C ) Dew Point ( °F °C ) Humidity (%) Winds ( mph kmh ) Pressure ( in mb ) Visibility ( mi km ) Precip ( " mm )
12:53 am 00:53 Clear 65 18.3 55 12.8 70 70 SSE 15 24 29.93 1013 10 16.0934 0 0
1:53 am 01:53 Clear 65 18.3 55 12.8 70 70 SE 9 15 29.87 1012 10 16.0934 0 0
2:53 am 02:53 Clear 65 18.3 56 13.3 73 73 SE 6 9 29.87 1011 10 16.0934 0 0
3:53 am 03:53 Clear 63 17.2 57 13.9 81 81 ESE 12 19 29.82 1010 10 16.0934 0 0
4:53 am 04:53 Clear 61 16.1 56 13.3 84 84 ESE 12 19 29.81 1009 10 16.0934 0 0
5:53 am 05:53 Sunny 61 16.1 57 13.9 87 87 ESE 13 20 29.79 1009 10 16.0934 0 0
6:53 am 06:53 Sunny 63 17.2 57 13.9 81 81 E 8 13 29.81 1010 10 16.0934 0 0
7:53 am 07:53 Sunny 67 19.4 57 13.9 71 71 undefined N/A 29.77 1008 10 16.0934 0 0
8:53 am 08:53 Sunny 70 21.1 57 13.9 64 64 ESE 10 17 29.76 1008 10 16.0934 0 0
9:53 am 09:53 Sunny 72 22.2 59 15 64 64 E 9 15 29.74 1007 10 16.0934 0 0
10:53 am 10:53 Sunny 79 26.1 55 12.8 44 44 Calm 29.72 1007 10 16.0934 0 0
11:53 am 11:53 Sunny 82 27.8 59 15 46 46 SSE 12 19 29.73 1007 10 16.0934 0 0
12:53 pm 12:53 Sunny 82 27.8 60 15.6 47 47 ESE 10 17 29.72 1007 10 16.0934 0 0
1:53 pm 13:53 Sunny 87 30.6 56 13.3 35 35 ESE 10 17 29.69 1005 10 16.0934 0 0
2:53 pm 14:53 Sunny 90 32.2 53 11.7 28 28 SE 13 20 29.67 1005 10 16.0934 0 0
3:35 pm 15:35 Partly Cloudy with Nearby Thunderstorms 86 30 50 10 29 29 NNE 16 26 29.56 1001 10 16.0934 0 0
3:45 pm 15:45 Mostly Cloudy with Light Thunderstorms 85 29.4 47 8.3 27 27 undefined N/A 29.59 1002 8 12.87472 0.01 0.254
3:53 pm 15:53 Cloudy with Light Thunderstorms 82 27.8 51 10.6 34 34 undefined N/A 29.75 1007 8 12.87472 0.02 0.508
4:08 pm 16:08 Cloudy with Heavy Thunderstorms 70 21 55 13 60 60 undefined N/A 29.74 1007 2.5 4.02335 0 0
4:16 pm 16:16 Mostly Cloudy with Light Thunderstorms 72 22 55 13 57 57 undefined N/A 29.68 1005 10 16.0934 0 0
4:36 pm 16:36 Partly Cloudy with Nearby Thunderstorms 79 26 55 13 45 45 undefined N/A 29.56 1001 10 16.0934 0 0
4:53 pm 16:53 Sunny 81 27.2 55 12.8 41 41 undefined N/A 29.71 1006 10 16.0934 0.13 3.302
5:53 pm 17:53 Sunny 79 26.1 55 12.8 44 44 undefined N/A 29.7 1006 10 16.0934 0 0
6:53 pm 18:53 Sunny 78 25.6 53 11.7 42 42 undefined N/A 29.68 1005 10 16.0934 0 0
7:53 pm 19:53 Sunny 74 23.3 54 12.2 50 50 undefined N/A 29.69 1005 10 16.0934 0 0
8:53 pm 20:53 Clear 68 20 56 13.3 65 65 E 6 9 29.71 1006 10 16.0934 0 0
9:53 pm 21:53 Mostly Clear 74 23.3 53 11.7 48 48 VRB 3 6 29.72 1007 10 16.0934 0 0
10:53 pm 22:53 Clear 72 22.2 54 12.2 53 53 N 8 13 29.72 1007 10 16.0934 0 0
11:53 pm 23:53 Clear 70 21.1 52 11.1 53 53 NNE 18 30 29.74 1007 10 16.0934 0 0

Powered by AerisWeather